Sturgeon Bay, WI (54235)

3:57 PM CST on December 20, 2014 (GMT -0600)
Leif Everson Observatory | Change Station
CLOSE
Current Station
Personal Weather Station
Location: Sturgeon Bay, WI
Elevation: 636 ft
Nearby Weather Stations

Elev 636 ft 44.83 °N, 87.34 °W | Updated 4 minutes ago

Overcast
Overcast
31.0 °F
Feels Like 31 °F
N
0.0
Wind Variable Wind from ESE
Gusts 0.0 mph

Today
High -- | Low -- °F
--% Chance of Precip.
Yesterday
High -- | Low -- °F
Precip. -- in
7:23 AM 4:10 PM
Waning Crescent, 2% visible
Pressure 30.25 in
Visibility 10.0 miles
Clouds Mostly Cloudy 3800 ft
Overcast 8500 ft
Windchill 31 °F
Dew Point 25 °F
Humidity 79%
Rainfall 0.00 in
Snow Depth Not available.
UV 0.0 out of 12
Pollen .10 out of 12
Air Quality Not available.
Flu Activity Not available.
METAR KSUE 202135Z AUTO 00000KT 10SM BKN038 OVC085 M01/M05 A3025 RMK AO1

More Conditions Fewer Conditions

Pressure 30.25 in
Visibility 10.0 miles
Clouds Mostly Cloudy 3800 ft
Overcast 8500 ft
Windchill 31 °F
Dew Point 25 °F
Humidity 79%
Rainfall 0.00 in
Snow Depth Not available.
UV 0.0 out of 12
Pollen .10 out of 12
Air Quality Not available.
Flu Activity Not available.
METAR KSUE 202135Z AUTO 00000KT 10SM BKN038 OVC085 M01/M05 A3025 RMK AO1

More Conditions Fewer Conditions

10-Day Weather Forecast

Almanac

Astronomy

Dec. 20, 2014 Rise Set
Actual Time
Civil Twilight
Nautical Twilight
Astronomical Twilight
Moon
Length of Visible Light
Length of Day
Tomorrow will be .
, % of the Moon is Illuminated

Today's Extremes

State Highs State Lows

Community

WunderPhotos

Upload Photos

1,779,286 photos uploaded!

WunderBlogs® & News

Nearby

Air Quality

  Air Quality AQ Index Pollutant
Not available.

Snow Depth

Station Depth Elevation

Earthquake Activity

City Distance Mag. Time & Date
Minimum magnitude displayed is 2.5.

Coastal Water Temperatures

Place Temperature

Nearby Weather Stations